When you browse on this site, cookies collect data to enhance your experience and personalize the content and advertising you see.
Visit our Privacy Policy to learn more. By continuing to use the site, you agree to this use of cookies and data.
  • Em Portugal
  • Lista de países
  • Para 7 dias
  • Temperatura da água
  • Mapa do tempo
  • Widgets de tempo
  • user-avatar
    Iniciar Sessão

    Previsão horária em Jaú

    Hoje, 2 Junho, Terça-feira

    Tempo Temperatura Precipitação Vento Pressão Humidade
    00:00 +35°C° 0 mm 2 m/s 752 mmHg 65%
    01:00 +35°C° 0 mm 2 m/s 752 mmHg 64%
    02:00 +34°C° 0 mm 2 m/s 751 mmHg 64%
    03:00 +33°C° 0 mm 1 m/s 751 mmHg 67%
    04:00 +34°C° 0 mm 2 m/s 751 mmHg 65%
    05:00 +34°C° 0 mm 2 m/s 752 mmHg 62%
    06:00 +35°C° 0 mm 3 m/s 752 mmHg 59%
    07:00 +35°C° 0 mm 3 m/s 752 mmHg 57%
    08:00 +36°C° 0 mm 2 m/s 752 mmHg 54%
    09:00 +36°C° 0 mm 2 m/s 752 mmHg 54%
    10:00 +37°C° 0 mm 2 m/s 752 mmHg 52%
    11:00 +38°C° 0 mm 2 m/s 752 mmHg 50%
    12:00 +38°C° 0 mm 2 m/s 752 mmHg 48%
    13:00 +38°C° 0 mm 2 m/s 752 mmHg 49%
    14:00 +38°C° 0 mm 3 m/s 751 mmHg 49%
    15:00 +38°C° 0 mm 4 m/s 750 mmHg 49%
    16:00 +38°C° 0 mm 4 m/s 750 mmHg 48%
    17:00 +38°C° 0 mm 4 m/s 751 mmHg 47%
    18:00 +38°C° 0 mm 4 m/s 751 mmHg 46%
    19:00 +37°C° 0 mm 4 m/s 751 mmHg 47%
    20:00 +37°C° 0 mm 5 m/s 751 mmHg 48%
    21:00 +37°C° 0 mm 5 m/s 751 mmHg 49%
    22:00 +36°C° 0 mm 4 m/s 751 mmHg 52%
    23:00 +36°C° 0 mm 3 m/s 751 mmHg 55%

    Amanhã, 3 Junho, Quarta-feira

    Tempo Temperatura Precipitação Vento Pressão Humidade
    00:00 +35°C° 0 mm 2 m/s 751 mmHg 58%
    01:00 +35°C° 0 mm 3 m/s 750 mmHg 57%
    02:00 +35°C° 0 mm 3 m/s 750 mmHg 56%
    03:00 +35°C° 0 mm 3 m/s 750 mmHg 55%
    04:00 +36°C° 0 mm 4 m/s 750 mmHg 55%
    05:00 +36°C° 0 mm 4 m/s 751 mmHg 55%
    06:00 +36°C° 0 mm 4 m/s 751 mmHg 54%
    07:00 +37°C° 0 mm 5 m/s 751 mmHg 50%
    08:00 +37°C° 0 mm 5 m/s 751 mmHg 46%
    09:00 +39°C° 0 mm 5 m/s 752 mmHg 42%
    10:00 +39°C° 0 mm 5 m/s 751 mmHg 42%
    11:00 +40°C° 0 mm 4 m/s 751 mmHg 41%
    12:00 +40°C° 0 mm 3 m/s 751 mmHg 41%
    13:00 +40°C° 0 mm 4 m/s 751 mmHg 42%
    14:00 +40°C° 0 mm 4 m/s 750 mmHg 44%
    15:00 +40°C° 0 mm 5 m/s 749 mmHg 46%
    16:00 +38°C° 0 mm 4 m/s 749 mmHg 45%
    17:00 +38°C° 0 mm 4 m/s 749 mmHg 45%
    18:00 +38°C° 0 mm 4 m/s 749 mmHg 44%
    19:00 +38°C° 0 mm 3 m/s 750 mmHg 46%
    20:00 +37°C° 0 mm 2 m/s 750 mmHg 48%
    21:00 +37°C° 0 mm 2 m/s 750 mmHg 50%
    22:00 +37°C° 0 mm 2 m/s 750 mmHg 52%
    23:00 +36°C° 0 mm 2 m/s 750 mmHg 53%

    Depois de amanhã, 4 Junho, Quinta-feira

    Tempo Temperatura Precipitação Vento Pressão Humidade
    00:00 +36°C° 0 mm 2 m/s 750 mmHg 54%
    01:00 +35°C° 0 mm 1 m/s 750 mmHg 56%
    02:00 +35°C° 0 mm 1 m/s 750 mmHg 58%
    03:00 +32°C° 0 mm 0 m/s 749 mmHg 60%
    04:00 +35°C° 0 mm 1 m/s 750 mmHg 56%
    05:00 +36°C° 0 mm 2 m/s 750 mmHg 52%
    06:00 +36°C° 0 mm 4 m/s 751 mmHg 48%
    07:00 +37°C° 0 mm 4 m/s 751 mmHg 46%
    08:00 +37°C° 0 mm 5 m/s 751 mmHg 44%
    09:00 +39°C° 0 mm 6 m/s 751 mmHg 42%
    10:00 +39°C° 0 mm 6 m/s 751 mmHg 41%
    11:00 +40°C° 0 mm 5 m/s 751 mmHg 40%
    12:00 +40°C° 0 mm 5 m/s 751 mmHg 39%
    13:00 +40°C° 0 mm 6 m/s 750 mmHg 41%
    14:00 +40°C° 0 mm 6 m/s 750 mmHg 43%
    15:00 +39°C° 0 mm 7 m/s 749 mmHg 45%
    16:00 +39°C° 0 mm 6 m/s 750 mmHg 46%
    17:00 +38°C° 0 mm 6 m/s 750 mmHg 47%
    18:00 +38°C° 0 mm 6 m/s 750 mmHg 49%
    19:00 +38°C° 0 mm 6 m/s 750 mmHg 47%
    20:00 +38°C° 0 mm 6 m/s 750 mmHg 46%
    21:00 +37°C° 0 mm 5 m/s 751 mmHg 45%
    22:00 +37°C° 0 mm 5 m/s 750 mmHg 45%
    23:00 +37°C° 0 mm 5 m/s 750 mmHg 45%

    5 Junho, Sexta-feira

    Tempo Temperatura Precipitação Vento Pressão Humidade
    00:00 +37°C° 0 mm 5 m/s 750 mmHg 45%
    01:00 +38°C° 0 mm 6 m/s 750 mmHg 47%
    02:00 +38°C° 0 mm 6 m/s 749 mmHg 48%
    03:00 +38°C° 0 mm 7 m/s 749 mmHg 49%
    04:00 +36°C° 0 mm 7 m/s 750 mmHg 53%
    05:00 +36°C° 0 mm 7 m/s 750 mmHg 57%
    06:00 +35°C° 0 mm 8 m/s 751 mmHg 61%
    07:00 +37°C° 0 mm 8 m/s 751 mmHg 59%
    08:00 +36°C° 0 mm 7 m/s 751 mmHg 57%
    09:00 +36°C° 0 mm 7 m/s 751 mmHg 55%
    10:00 +38°C° 0 mm 8 m/s 751 mmHg 54%
    11:00 +38°C° 0 mm 8 m/s 751 mmHg 53%
    12:00 +38°C° 0 mm 9 m/s 751 mmHg 52%
    13:00 +38°C° 0 mm 9 m/s 750 mmHg 51%
    14:00 +38°C° 0 mm 9 m/s 750 mmHg 50%
    15:00 +38°C° 0 mm 8 m/s 749 mmHg 50%
    16:00 +38°C° 0 mm 8 m/s 749 mmHg 48%
    17:00 +39°C° 0 mm 8 m/s 750 mmHg 47%
    18:00 +39°C° 0 mm 7 m/s 750 mmHg 46%
    19:00 +39°C° 0 mm 7 m/s 750 mmHg 46%
    20:00 +39°C° 0 mm 6 m/s 750 mmHg 46%
    21:00 +39°C° 0 mm 5 m/s 750 mmHg 47%
    22:00 +38°C° 0 mm 6 m/s 750 mmHg 48%
    23:00 +38°C° 0 mm 6 m/s 750 mmHg 50%

    6 Junho, Sábado

    Tempo Temperatura Precipitação Vento Pressão Humidade
    00:00 +38°C° 0 mm 6 m/s 750 mmHg 51%
    01:00 +38°C° 0 mm 6 m/s 749 mmHg 54%
    02:00 +36°C° 0 mm 7 m/s 749 mmHg 56%
    03:00 +37°C° 0 mm 8 m/s 749 mmHg 58%
    04:00 +36°C° 0 mm 7 m/s 749 mmHg 59%
    05:00 +36°C° 0 mm 7 m/s 750 mmHg 60%
    06:00 +36°C° 0 mm 6 m/s 750 mmHg 60%
    07:00 +36°C° 0 mm 7 m/s 750 mmHg 59%
    08:00 +36°C° 0 mm 7 m/s 751 mmHg 57%
    09:00 +37°C° 0 mm 8 m/s 751 mmHg 56%
    10:00 +38°C° 0 mm 8 m/s 751 mmHg 55%
    11:00 +38°C° 0 mm 9 m/s 750 mmHg 54%
    12:00 +38°C° 0 mm 9 m/s 750 mmHg 53%
    13:00 +38°C° 0 mm 9 m/s 750 mmHg 53%
    14:00 +38°C° 0 mm 9 m/s 750 mmHg 52%
    15:00 +38°C° 0 mm 9 m/s 749 mmHg 52%
    16:00 +38°C° 0 mm 8 m/s 749 mmHg 52%
    17:00 +38°C° 0 mm 7 m/s 749 mmHg 52%
    18:00 +38°C° 0 mm 6 m/s 749 mmHg 51%
    19:00 +38°C° 0 mm 6 m/s 749 mmHg 51%
    20:00 +37°C° 0 mm 5 m/s 749 mmHg 51%
    21:00 +37°C° 0 mm 5 m/s 750 mmHg 52%
    22:00 +37°C° 0 mm 5 m/s 749 mmHg 51%
    23:00 +37°C° 0 mm 5 m/s 749 mmHg 51%

    7 Junho, Domingo

    Tempo Temperatura Precipitação Vento Pressão Humidade
    00:00 +38°C° 0 mm 6 m/s 749 mmHg 51%
    01:00 +36°C° 0 mm 6 m/s 749 mmHg 54%
    02:00 +36°C° 0 mm 7 m/s 749 mmHg 58%
    03:00 +36°C° 0 mm 7 m/s 749 mmHg 61%
    04:00 +36°C° 0 mm 7 m/s 749 mmHg 60%
    05:00 +36°C° 0 mm 7 m/s 749 mmHg 59%
    06:00 +36°C° 0 mm 7 m/s 749 mmHg 58%
    07:00 +37°C° 0 mm 8 m/s 750 mmHg 55%
    08:00 +38°C° 0 mm 8 m/s 750 mmHg 53%
    09:00 +38°C° 0 mm 8 m/s 750 mmHg 50%
    10:00 +39°C° 0 mm 9 m/s 750 mmHg 49%
    11:00 +39°C° 0 mm 9 m/s 750 mmHg 49%
    12:00 +39°C° 0 mm 10 m/s 750 mmHg 49%
    13:00 +39°C° 0 mm 10 m/s 749 mmHg 48%
    14:00 +39°C° 0 mm 10 m/s 749 mmHg 48%
    15:00 +38°C° 0 mm 10 m/s 749 mmHg 47%
    16:00 +38°C° 0 mm 9 m/s 749 mmHg 48%
    17:00 +38°C° 0 mm 9 m/s 749 mmHg 48%
    18:00 +38°C° 0 mm 8 m/s 749 mmHg 49%
    19:00 +38°C° 0 mm 7 m/s 749 mmHg 48%
    20:00 +38°C° 0 mm 6 m/s 749 mmHg 47%
    21:00 +37°C° 0 mm 5 m/s 749 mmHg 47%
    22:00 +37°C° 0 mm 5 m/s 749 mmHg 45%
    23:00 +37°C° 0 mm 5 m/s 749 mmHg 43%
    Mostrar mais